Wind_Speed
17 17 19 14 11 7 5 7 7 7 6 11 9 10 9 13 11 13 11 14 15 13 15 14 14 13 13 16 14 11 11 11 9 7 9 8 7 6 6 4 4 3 7 6
18 26 19 15 13 13 12 12 10 9 9 14 12 14 9 13 5 10 10 14 17 18 19 15 14 15 14 14 11 13 11 10 10 9 6 6 6 7 7 7 2 3 8 5
25 24 23 16 18 19 17 15 13 13 13 12 13 10 3 6 7 5 17 17 18 20 19 17 14 13 13 14 18 15 13 10 10 11 7 5 2 4 8 12 11 9 7 5
21 22 19 18 22 20 22 15 12 11 12 14 9 15 9 6 11 11 7 17 24 20 20 16 14 15 13 10 15 18 16 14 13 11 10 8 6 2 2 2 8 18 10 5
15 14 20 23 25 22 24 12 12 13 15 17 15 11 5 7 5 9 10 4 17 26 24 22 16 15 16 15 12 12 12 11 11 10 11 11 8 5 3 3 5 14 11 10
11 13 11 15 18 21 21 14 15 19 20 21 22 13 17 1 4 7 6 12 6 23 29 26 20 21 19 17 15 12 10 9 7 7 9 8 7 6 4 1 4 8 12 15
15 14 13 15 12 11 17 26 28 22 18 16 21 11 20 14 13 11 14 12 11 14 29 31 29 26 23 18 15 13 11 9 8 7 6 7 7 6 5 4 3 4 6 8
12 16 18 16 21 18 17 22 28 21 16 19 11 13 22 15 13 13 13 13 13 13 29 32 34 31 24 20 17 15 12 12 9 9 7 6 6 7 8 8 8 7 8 9
9 15 12 11 13 18 21 20 23 30 31 18 24 12 15 20 19 14 14 15 12 11 21 33 34 30 26 23 21 16 15 11 10 10 9 8 9 8 9 11 12 12 11 11
8 14 14 14 12 12 20 10 16 22 19 22 25 24 18 15 11 11 14 9 11 10 15 28 35 31 27 26 24 23 20 18 14 12 11 11 12 10 9 12 12 13 13 14
4 8 6 7 14 18 15 20 20 20 20 17 16 23 23 14 16 13 9 10 11 10 9 21 35 34 29 30 28 26 24 22 19 14 11 11 11 11 10 12 12 13 14 15
4 6 11 14 7 14 17 21 24 23 22 21 27 28 6 11 12 14 16 15 13 11 12 15 26 36 35 32 29 27 25 23 21 21 16 11 10 10 9 12 12 13 14 15
6 7 12 13 9 12 14 17 23 26 27 28 22 21 21 24 19 21 23 21 14 11 14 16 21 31 34 31 30 29 25 22 23 21 20 12 10 9 10 12 12 13 14 14
10 13 14 18 13 9 13 13 15 22 28 28 31 29 25 23 22 21 23 25 23 15 11 18 20 25 29 31 29 24 24 24 21 20 15 13 11 9 13 11 12 12 13 13
9 15 16 19 18 17 18 17 17 19 24 29 29 26 21 22 23 25 25 27 24 18 17 16 22 26 26 27 26 26 25 24 20 18 17 14 13 9 13 14 13 13 13 15
12 18 16 18 20 20 22 22 21 20 21 22 24 25 22 21 26 26 23 19 21 21 19 21 24 25 31 29 29 28 28 25 25 24 18 19 14 11 12 13 13 13 15 15
16 16 16 21 19 19 25 26 26 20 18 17 19 16 15 23 23 21 18 16 21 20 20 22 23 25 25 29 31 30 27 25 28 24 20 21 19 17 11 13 11 15 16 15
19 15 15 20 17 18 26 15 14 16 18 18 17 17 23 21 23 19 19 18 16 19 21 23 21 23 22 23 25 28 27 25 28 24 19 16 20 18 13 14 14 13 17 17
17 17 18 20 20 20 21 15 12 12 17 14 12 13 20 25 20 21 18 19 20 16 22 24 24 23 24 24 23 24 27 28 27 26 25 15 18 17 15 16 17 15 17 18
10 12 16 16 15 15 17 7 18 16 17 16 18 18 19 16 15 6 19 21 21 22 18 21 25 28 29 27 22 22 27 28 29 32 22 18 18 16 16 20 18 16 18 19
12 13 19 20 20 21 16 18 18 16 12 7 13 14 14 11 9 8 12 20 22 24 22 20 21 25 26 26 25 27 28 32 34 28 23 25 17 18 20 21 19 18 19 19
14 16 18 17 22 25 18 17 17 17 19 18 14 12 8 9 7 7 7 9 11 14 17 21 23 21 24 26 27 29 32 34 29 24 23 27 21 17 25 24 21 19 20 18
15 18 20 16 15 10 13 15 22 26 28 28 28 20 12 9 6 8 9 9 9 11 13 18 20 20 20 20 24 29 27 25 30 30 28 29 32 27 24 29 21 22 20 18
25 22 24 21 22 21 23 22 27 27 27 28 30 31 38 22 14 14 10 10 12 12 13 13 13 17 17 18 20 23 25 30 28 26 17 21 26 22 19 26 22 22 20 19
22 20 20 25 24 23 23 22 18 25 25 28 28 30 27 36 29 20 14 11 10 10 10 11 11 10 9 13 21 27 32 29 28 21 19 20 27 23 20 24 20 18 18 17
27 28 29 32 24 25 23 17 21 27 25 22 24 24 23 30 37 29 28 18 15 13 10 7 8 12 12 15 20 25 31 32 29 22 23 23 23 22 23 20 18 15 17 19
Wind_Direction
219 220 223 224 229 250 243 271 302 338 327 334 304 288 266 268 239 218 203 188 190 186 188 192 191 191 191 185 188 186 184 181 182 184 192 198 228 247 249 262 295 294 174 165
220 228 229 237 235 245 259 272 282 307 315 323 318 298 264 260 292 236 218 194 189 194 199 199 199 202 205 200 196 194 191 189 196 208 211 215 235 252 255 249 238 165 128 138
228 232 237 237 241 248 252 260 277 293 304 297 318 302 280 302 292 257 220 212 198 194 194 198 201 199 201 210 210 210 210 208 211 210 206 211 228 265 284 245 243 186 154 121
231 232 240 240 241 245 257 264 267 276 288 290 316 308 291 266 316 316 252 219 210 197 190 190 192 199 190 184 202 210 213 218 223 224 217 235 240 290 336 207 228 207 203 231
231 233 237 243 244 244 252 264 258 269 276 279 271 270 303 294 284 308 0 328 214 208 196 195 191 194 194 198 178 180 188 195 213 222 223 231 236 249 287 46 124 171 206 241
230 214 216 238 233 234 245 250 259 266 271 269 261 258 277 223 307 322 311 326 255 208 204 197 191 194 200 201 196 189 182 178 179 196 213 224 228 228 250 197 170 204 236 245
235 243 239 232 237 241 230 245 254 248 238 246 256 244 260 273 298 308 309 304 275 219 204 203 198 200 199 202 201 199 201 198 196 192 204 220 231 235 237 250 250 261 268 271
251 238 233 247 230 236 236 235 244 247 249 257 218 243 262 270 287 298 309 335 308 231 205 207 208 211 213 204 203 203 205 217 222 220 227 239 247 243 246 247 255 261 269 273
262 245 253 252 230 228 237 237 243 262 260 263 266 242 257 270 277 288 292 308 331 222 216 214 209 212 210 204 206 203 207 217 236 246 248 250 252 259 264 260 254 256 263 270
252 268 258 245 247 236 218 257 224 235 250 256 244 254 262 267 260 283 307 297 318 217 220 214 211 210 207 205 208 215 220 226 235 244 254 255 254 256 265 272 268 262 267 271
258 261 261 244 230 226 218 235 239 262 253 257 255 250 251 246 251 267 286 308 302 241 226 217 212 212 214 214 216 222 222 223 230 239 254 253 255 258 269 276 276 268 264 269
276 284 273 269 245 232 241 248 241 241 246 248 264 267 249 233 255 266 277 288 296 281 233 217 214 211 213 217 220 223 222 226 231 236 244 247 254 257 270 275 272 271 271 271
292 265 290 267 230 242 242 248 246 251 254 255 268 265 259 257 261 261 261 271 277 287 251 233 220 214 218 217 220 223 221 221 227 229 236 246 263 267 277 280 277 275 272 271
276 267 262 282 316 302 283 266 253 248 253 256 253 264 260 261 265 264 266 271 277 269 269 231 230 221 220 221 219 220 221 224 229 232 241 258 266 287 288 284 277 275 275 280
275 275 270 260 263 274 269 271 269 259 253 258 268 268 267 259 256 261 258 261 265 246 258 254 231 228 220 219 217 220 223 227 231 233 237 245 246 250 279 293 292 283 281 288
274 275 271 267 261 260 262 266 267 265 263 264 258 262 257 257 249 254 253 263 248 232 251 248 232 228 225 225 226 227 229 227 225 225 231 241 262 258 271 281 299 291 283 290
270 267 269 269 264 263 258 256 260 259 259 264 258 269 246 256 259 254 256 261 245 238 250 244 237 228 227 228 227 227 228 231 226 229 235 239 254 253 246 266 288 296 292 297
254 253 261 267 266 257 266 251 259 256 258 256 259 268 260 266 269 274 270 265 261 250 243 238 226 220 221 223 226 228 228 227 224 227 222 239 250 254 256 263 281 287 290 297
245 247 250 254 252 260 262 277 259 261 270 251 259 268 268 262 272 289 285 275 270 268 249 241 236 224 222 228 229 225 220 221 225 229 218 238 251 253 256 264 273 283 292 295
228 225 232 246 257 268 260 257 242 256 259 238 254 258 262 269 265 263 273 282 280 281 274 249 243 231 227 225 224 229 226 225 226 222 232 237 250 252 255 259 267 280 286 285
236 237 237 245 252 264 266 262 272 248 240 233 238 244 246 247 255 266 287 289 290 288 287 275 250 243 240 227 218 218 223 226 231 215 225 224 243 254 255 251 262 274 281 278
247 251 248 247 260 262 255 262 254 251 262 269 242 240 243 236 243 260 283 291 293 292 287 283 272 260 246 238 224 217 219 225 225 216 225 227 248 265 269 255 254 267 273 271
251 244 257 251 243 262 263 257 261 268 266 266 265 256 266 259 261 268 275 301 296 297 290 274 270 270 259 245 236 238 219 219 211 225 227 234 271 267 246 250 248 261 267 264
254 261 258 259 259 263 267 267 270 273 273 269 261 258 257 266 266 279 277 301 308 308 306 296 272 264 267 259 239 208 205 207 224 233 232 255 268 246 239 256 244 257 263 261
247 256 261 266 265 269 263 267 262 265 267 263 262 255 250 239 267 267 263 278 284 301 304 301 289 271 237 220 210 200 201 209 219 214 264 247 228 231 238 232 242 261 264 262
254 259 259 263 264 262 262 256 265 259 254 257 263 259 247 242 251 255 262 271 273 281 299 289 268 252 231 217 203 209 202 222 218 240 272 220 221 226 221 230 238 251 266 260
Height
3179 3182 3181 3182 3183 3182 3184 3184 3183 3182 3182 3180 3179 3179 3179 3175 3175 3176 3176 3176 3178 3180 3181 3181 3182 3184 3184 3186 3187 3188 3189 3190 3192 3192 3192 3194 3195 3196 3195 3196 3196 3196 3195 3196
3178 3176 3179 3180 3181 3182 3183 3182 3182 3181 3179 3178 3177 3175 3175 3173 3173 3173 3175 3175 3177 3180 3181 3180 3181 3183 3184 3185 3187 3187 3189 3190 3191 3192 3193 3194 3194 3195 3195 3195 3195 3195 3195 3196
3173 3176 3176 3177 3180 3180 3179 3180 3180 3181 3179 3177 3174 3170 3171 3171 3170 3170 3171 3173 3174 3176 3178 3179 3180 3182 3183 3183 3185 3186 3188 3189 3190 3191 3192 3192 3193 3193 3192 3192 3193 3195 3194 3195
3170 3172 3172 3174 3176 3178 3176 3176 3178 3179 3179 3175 3175 3171 3169 3169 3168 3167 3168 3169 3172 3174 3175 3177 3178 3180 3181 3183 3183 3184 3186 3187 3188 3190 3191 3192 3192 3192 3191 3189 3189 3191 3193 3194
3167 3167 3169 3170 3173 3175 3175 3174 3177 3177 3176 3174 3173 3172 3166 3167 3168 3167 3166 3166 3167 3170 3172 3174 3176 3178 3180 3181 3182 3183 3184 3186 3186 3188 3189 3190 3191 3191 3191 3189 3188 3190 3192 3193
3163 3163 3165 3168 3169 3170 3172 3172 3173 3174 3174 3170 3167 3168 3164 3163 3167 3167 3165 3163 3163 3165 3168 3171 3174 3175 3177 3179 3180 3182 3183 3184 3185 3186 3187 3188 3189 3189 3189 3189 3189 3189 3190 3190
3161 3161 3163 3164 3166 3166 3167 3170 3166 3165 3164 3161 3161 3165 3162 3162 3164 3164 3164 3162 3159 3159 3162 3165 3169 3171 3174 3176 3178 3180 3181 3183 3184 3185 3186 3186 3187 3188 3188 3188 3188 3188 3188 3189
3158 3156 3158 3160 3161 3162 3162 3164 3159 3157 3154 3154 3155 3159 3160 3161 3161 3161 3160 3158 3155 3154 3157 3160 3163 3167 3170 3174 3176 3178 3179 3181 3182 3183 3184 3185 3186 3186 3186 3186 3186 3186 3186 3186
3154 3155 3155 3155 3156 3159 3159 3159 3160 3156 3153 3151 3151 3152 3157 3158 3157 3158 3157 3155 3154 3153 3154 3156 3159 3163 3167 3170 3172 3175 3177 3179 3180 3181 3182 3183 3184 3184 3184 3184 3183 3184 3184 3185
3154 3153 3151 3153 3152 3153 3154 3156 3156 3154 3150 3145 3145 3148 3150 3153 3154 3155 3154 3152 3152 3151 3152 3154 3156 3160 3163 3166 3169 3171 3174 3176 3177 3178 3178 3179 3180 3181 3181 3182 3181 3181 3182 3182
3153 3152 3149 3149 3147 3148 3151 3152 3152 3148 3145 3140 3138 3140 3144 3148 3151 3151 3151 3150 3150 3149 3149 3150 3152 3156 3159 3162 3164 3167 3169 3171 3173 3174 3175 3175 3176 3176 3177 3177 3177 3178 3178 3178
3152 3150 3146 3144 3143 3144 3144 3144 3145 3143 3144 3143 3142 3138 3141 3145 3147 3147 3146 3146 3146 3146 3146 3146 3149 3151 3154 3157 3160 3163 3165 3168 3169 3170 3171 3172 3173 3173 3173 3173 3172 3173 3174 3174
3152 3148 3145 3139 3141 3140 3141 3141 3141 3139 3138 3136 3136 3136 3140 3142 3143 3143 3142 3142 3142 3143 3143 3143 3144 3146 3150 3153 3156 3158 3161 3163 3165 3166 3167 3168 3168 3169 3168 3169 3169 3169 3170 3170
3147 3147 3146 3141 3137 3139 3139 3139 3138 3137 3133 3133 3132 3134 3136 3137 3138 3138 3137 3136 3137 3138 3138 3139 3140 3142 3145 3148 3151 3154 3156 3158 3160 3162 3164 3165 3165 3165 3166 3166 3165 3166 3166 3166
3146 3144 3143 3141 3140 3139 3137 3135 3134 3133 3132 3130 3128 3127 3130 3132 3130 3131 3130 3129 3131 3132 3133 3134 3135 3136 3139 3142 3146 3149 3151 3153 3156 3158 3159 3160 3161 3159 3163 3164 3163 3163 3163 3163
3142 3140 3139 3137 3136 3134 3132 3130 3129 3128 3127 3126 3126 3125 3127 3125 3124 3124 3124 3123 3124 3125 3126 3127 3129 3131 3133 3137 3141 3144 3146 3149 3151 3152 3154 3155 3155 3156 3158 3160 3159 3159 3159 3157
3137 3136 3135 3131 3130 3128 3126 3125 3122 3123 3122 3122 3122 3122 3119 3119 3118 3119 3118 3118 3118 3118 3120 3121 3123 3125 3129 3132 3135 3138 3142 3144 3144 3147 3148 3149 3150 3152 3153 3156 3155 3155 3155 3153
3130 3131 3131 3128 3128 3122 3120 3118 3118 3118 3118 3117 3117 3117 3114 3114 3114 3114 3113 3113 3112 3112 3113 3115 3116 3119 3123 3126 3128 3131 3135 3137 3139 3142 3144 3145 3146 3148 3149 3151 3151 3150 3151 3149
3126 3126 3126 3124 3121 3118 3117 3116 3116 3115 3115 3112 3112 3111 3109 3109 3111 3109 3108 3108 3107 3107 3107 3109 3110 3112 3115 3118 3122 3124 3127 3129 3133 3135 3138 3141 3144 3145 3146 3147 3147 3147 3147 3146
3121 3121 3123 3119 3117 3112 3110 3109 3111 3111 3110 3107 3105 3105 3104 3105 3108 3105 3103 3103 3103 3103 3103 3103 3104 3105 3107 3110 3115 3118 3121 3123 3125 3127 3136 3138 3141 3143 3144 3144 3143 3142 3142 3142
3118 3117 3116 3114 3112 3109 3108 3106 3107 3109 3108 3100 3100 3100 3101 3101 3101 3099 3098 3099 3098 3098 3099 3098 3098 3099 3101 3103 3106 3110 3113 3115 3115 3123 3126 3128 3134 3140 3140 3140 3140 3138 3137 3137
3114 3112 3109 3109 3107 3104 3101 3103 3106 3102 3099 3099 3097 3097 3098 3098 3097 3096 3095 3094 3094 3093 3093 3093 3093 3093 3095 3097 3098 3101 3103 3106 3114 3118 3122 3123 3122 3130 3134 3135 3134 3133 3132 3130
3108 3106 3105 3105 3102 3097 3098 3098 3097 3097 3096 3094 3095 3095 3095 3095 3094 3093 3092 3091 3090 3089 3088 3087 3088 3088 3088 3090 3092 3094 3099 3105 3108 3112 3114 3119 3119 3115 3119 3124 3127 3127 3126 3125
3100 3099 3096 3097 3095 3096 3096 3093 3091 3091 3089 3088 3089 3088 3090 3090 3089 3091 3089 3088 3087 3085 3084 3083 3082 3082 3083 3084 3087 3091 3095 3098 3104 3106 3110 3113 3114 3114 3114 3118 3119 3120 3120 3120
3093 3089 3088 3086 3088 3088 3088 3087 3086 3082 3082 3081 3081 3081 3081 3084 3086 3087 3087 3085 3084 3083 3082 3081 3080 3079 3079 3080 3082 3085 3087 3092 3096 3099 3102 3102 3105 3106 3107 3110 3113 3115 3115 3115
3081 3081 3079 3075 3081 3080 3080 3080 3077 3075 3075 3075 3074 3075 3076 3076 3081 3082 3083 3083 3081 3081 3079 3078 3077 3076 3076 3078 3077 3080 3085 3088 3090 3092 3095 3094 3098 3100 3104 3107 3108 3107 3108 3110